GW2898 Weather Reports


Display with metric or nautical units.
time (UTC)temp
F
wind
direction
speed
MPH
gust
MPH
rain 1hr
in
rain 24hr
in
rain mn
in
humidity
%
barometer
mb
20260504184046 77 15 3.0 5.0 0.00 0.00 0.00 41 1015.2
20260504183543 75 298 2.0 7.0 0.00 0.00 0.00 44 1015.2
20260504183042 75 9 3.0 7.0 0.00 0.00 0.00 44 1015.3
20260504182538 75 342 5.0 9.0 0.00 0.00 0.00 44 1015.4
20260504182036 75 351 4.0 8.0 0.00 0.00 0.00 44 1016.0
20260504181532 76 257 4.0 8.0 0.00 0.00 0.00 36 1016.1
20260504181031 76 238 1.0 5.0 0.00 0.00 0.00 35 1016.0
20260504180529 76 239 5.0 8.0 0.00 0.00 0.00 34 1016.1
20260504180028 75 291 3.0 10.0 0.00 0.00 0.00 38 1015.7
20260504175525 75 226 2.0 5.0 0.00 0.00 0.00 45 1015.7
20260504175022 74 269 0.0 3.0 0.00 0.00 0.00 44 1015.3
20260504174520 74 242 0.0 3.0 0.00 0.00 0.00 44 1015.0
20260504174016 75 85 3.0 5.0 0.00 0.00 0.00 43 1015.0
20260504173513 74 236 0.0 6.0 0.00 0.00 0.00 45 1015.4
20260504173011 74 267 0.0 2.0 0.00 0.00 0.00 45 1015.2
20260504172507 74 283 1.0 5.0 0.00 0.00 0.00 46 1015.2
20260504172003 74 342 3.0 4.0 0.00 0.00 0.00 46 1015.2
20260504171500 74 0 2.0 5.0 0.00 0.00 0.00 46 1015.2
20260504170957 74 172 1.0 2.0 0.00 0.00 0.00 44 1015.6
20260504170453 74 235 4.0 6.0 0.00 0.00 0.00 44 1015.5
20260504160413 74 186 4.0 10.0 0.00 0.00 0.00 35 1015.5
20260504150837 73 218 4.0 10.0 0.00 0.00 0.00 42 1015.1
20260504150333 73 232 1.0 9.0 0.00 0.00 0.00 42 1015.1
20260504141303 71 173 0.0 4.0 0.00 0.00 0.00 44 1014.6
20260504140800 71 286 0.0 2.0 0.00 0.00 0.00 45 1014.3
20260504140255 71 147 0.0 2.0 0.00 0.00 0.00 46 1014.4
20260504130725 70 148 2.0 4.0 0.00 0.00 0.00 47 1014.4
20260504130220 70 135 0.0 3.0 0.00 0.00 0.00 47 1014.2
20260504120144 70 135 0.0 2.0 0.00 0.00 0.00 47 1013.5
20260504110612 71 100 2.0 2.0 0.00 0.00 0.00 44 1013.5
20260504110108 71 166 0.0 2.0 0.00 0.00 0.00 45 1013.6
20260504100533 73 19 0.0 1.0 0.00 0.00 0.00 42 1013.4
20260504081927 75 125 3.0 6.0 0.00 0.00 0.00 38 1012.8
20260504081424 75 153 2.0 6.0 0.00 0.00 0.00 38 1013.0
20260504080920 75 170 2.0 6.0 0.00 0.00 0.00 38 1013.3
20260504080417 75 151 3.0 6.0 0.00 0.00 0.00 38 1013.2
20260504070345 77 126 3.0 3.0 0.00 0.00 0.00 35 1013.3
20260504050732 79 138 2.0 4.0 0.00 0.00 0.00 28 1013.0
20260504050229 79 220 2.0 3.0 0.00 0.00 0.00 27 1013.0
20260504045726 80 210 0.0 7.0 0.00 0.00 0.00 27 1013.0
20260504045221 80 237 5.0 8.0 0.00 0.00 0.00 26 1012.8
20260504044719 80 180 1.0 8.0 0.00 0.00 0.00 26 1013.0
20260504044217 80 150 2.0 7.0 0.00 0.00 0.00 26 1012.7
20260504043714 81 240 4.0 9.0 0.00 0.00 0.00 25 1012.5
20260504043210 81 182 5.0 12.0 0.00 0.00 0.00 25 1012.6
20260504042708 81 218 2.0 8.0 0.00 0.00 0.00 25 1012.5
20260504042204 81 169 0.0 4.0 0.00 0.00 0.00 26 1012.3
20260504041700 81 158 1.0 3.0 0.00 0.00 0.00 25 1012.3
20260504041156 81 200 1.0 6.0 0.00 0.00 0.00 25 1012.4
20260504040653 82 230 2.0 6.0 0.00 0.00 0.00 25 1012.2
20260504040150 82 187 2.0 10.0 0.00 0.00 0.00 24 1012.3
20260504035646 82 190 1.0 12.0 0.00 0.00 0.00 24 1012.0
20260504035144 82 186 5.0 9.0 0.00 0.00 0.00 24 1012.0
20260504034641 82 223 6.0 14.0 0.00 0.00 0.00 23 1011.9
20260504034138 83 207 4.0 8.0 0.00 0.00 0.00 23 1011.6
20260504033636 83 201 2.0 10.0 0.00 0.00 0.00 23 1011.6
20260504033133 83 207 3.0 14.0 0.00 0.00 0.00 23 1011.1
20260504032630 83 221 4.0 13.0 0.00 0.00 0.00 22 1011.3
20260504032127 83 167 2.0 7.0 0.00 0.00 0.00 22 1011.3
20260504031624 84 212 6.0 15.0 0.00 0.00 0.00 22 1011.0
20260504031120 84 190 3.0 7.0 0.00 0.00 0.00 21 1010.9
20260504030617 84 151 2.0 12.0 0.00 0.00 0.00 21 1010.6
20260504030114 84 217 3.0 10.0 0.00 0.00 0.00 21 1010.8
20260504025610 85 242 7.0 15.0 0.00 0.00 0.00 20 1010.8
20260504025108 85 216 3.0 9.0 0.00 0.00 0.00 20 1010.7
20260504024605 85 216 3.0 11.0 0.00 0.00 0.00 20 1010.5
20260504024101 85 164 4.0 8.0 0.00 0.00 0.00 20 1010.5
20260504023558 86 204 3.0 13.0 0.00 0.00 0.00 19 1010.3
20260504023054 86 182 5.0 11.0 0.00 0.00 0.00 19 1010.3
20260504022550 86 209 3.0 13.0 0.00 0.00 0.00 19 1010.2
20260504022046 86 214 7.0 12.0 0.00 0.00 0.00 19 1009.8
20260504021544 87 226 2.0 9.0 0.00 0.00 0.00 18 1009.6
20260504021041 87 206 5.0 10.0 0.00 0.00 0.00 18 1009.8
20260504020538 87 217 7.0 12.0 0.00 0.00 0.00 18 1009.7
20260504020034 87 180 5.0 14.0 0.00 0.00 0.00 17 1009.5
20260504015530 88 223 3.0 11.0 0.00 0.00 0.00 18 1009.2
20260504015026 88 189 2.0 11.0 0.00 0.00 0.00 18 1009.4
20260504014523 89 190 15.0 16.0 0.00 0.00 0.00 17 1009.6
20260504014020 89 208 3.0 14.0 0.00 0.00 0.00 18 1009.3
20260504013518 90 212 3.0 11.0 0.00 0.00 0.00 17 1009.0
20260504013015 90 217 2.0 6.0 0.00 0.00 0.00 16 1009.0
20260504012512 91 214 2.0 5.0 0.00 0.00 0.00 15 1008.8
20260504012010 91 240 2.0 13.0 0.00 0.00 0.00 16 1009.1
20260504011506 91 211 4.0 7.0 0.00 0.00 0.00 15 1008.9
20260504011002 91 179 3.0 8.0 0.00 0.00 0.00 16 1008.9
20260504010458 92 181 2.0 9.0 0.00 0.00 0.00 16 1009.3
20260504005954 93 191 3.0 10.0 0.00 0.00 0.00 15 1009.1
20260504005451 93 176 2.0 9.0 0.00 0.00 0.00 15 1008.9
20260504004949 93 141 2.0 9.0 0.00 0.00 0.00 16 1009.0
20260504004446 93 180 1.0 11.0 0.00 0.00 0.00 16 1009.2
20260504003943 94 229 6.0 9.0 0.00 0.00 0.00 15 1009.2
20260504003439 94 257 4.0 11.0 0.00 0.00 0.00 14 1009.1
20260504002936 95 238 3.0 7.0 0.00 0.00 0.00 16 1009.1
20260504002433 94 190 2.0 12.0 0.00 0.00 0.00 14 1009.1
20260504001930 95 218 11.0 11.0 0.00 0.00 0.00 14 1009.0
20260504001428 94 214 3.0 11.0 0.00 0.00 0.00 15 1009.1
20260504000924 95 174 5.0 8.0 0.00 0.00 0.00 14 1009.0
20260504000423 95 217 3.0 11.0 0.00 0.00 0.00 15 1009.1
20260503235919 95 170 2.0 12.0 0.00 0.00 0.00 16 1009.1
20260503235416 95 211 7.0 13.0 0.00 0.00 0.00 15 1009.2
20260503234914 95 235 5.0 11.0 0.00 0.00 0.00 16 1008.9
20260503234411 95 238 5.0 12.0 0.00 0.00 0.00 15 1009.2
20260503233909 95 216 2.0 6.0 0.00 0.00 0.00 16 1009.1
20260503233405 95 184 5.0 13.0 0.00 0.00 0.00 15 1009.1
20260503232901 95 225 10.0 18.0 0.00 0.00 0.00 14 1009.2
20260503232359 95 216 4.0 9.0 0.00 0.00 0.00 17 1009.2
20260503231857 95 202 4.0 10.0 0.00 0.00 0.00 16 1009.0
20260503231354 96 259 6.0 8.0 0.00 0.00 0.00 15 1009.3
20260503230850 96 204 3.0 11.0 0.00 0.00 0.00 15 1009.2
20260503230346 96 231 5.0 7.0 0.00 0.00 0.00 15 1009.3
20260503225844 96 231 3.0 8.0 0.00 0.00 0.00 16 1009.5
20260503225340 95 274 8.0 12.0 0.00 0.00 0.00 16 1009.3
20260503224836 95 219 4.0 21.0 0.00 0.00 0.00 18 1009.4
20260503224334 96 192 2.0 9.0 0.00 0.00 0.00 17 1009.7
20260503223831 96 225 3.0 12.0 0.00 0.00 0.00 17 1009.7
20260503223329 95 219 3.0 7.0 0.00 0.00 0.00 18 1009.9
20260503222824 96 211 6.0 9.0 0.00 0.00 0.00 18 1009.8
20260503222323 95 181 8.0 16.0 0.00 0.00 0.00 16 1009.9
20260503221821 96 174 5.0 11.0 0.00 0.00 0.00 16 1010.1
20260503221319 95 165 3.0 8.0 0.00 0.00 0.00 16 1010.2
20260503220814 95 194 4.0 15.0 0.00 0.00 0.00 19 1010.2
20260503220312 96 190 3.0 8.0 0.00 0.00 0.00 18 1010.3
20260503215808 95 236 3.0 8.0 0.00 0.00 0.00 18 1010.5
20260503215305 94 172 4.0 11.0 0.00 0.00 0.00 17 1010.7
20260503214803 95 149 2.0 5.0 0.00 0.00 0.00 18 1010.8
20260503214300 95 136 3.0 8.0 0.00 0.00 0.00 17 1010.8
20260503213757 95 303 2.0 5.0 0.00 0.00 0.00 16 1010.8
20260503213255 94 224 6.0 12.0 0.00 0.00 0.00 17 1010.9
20260503212751 95 219 3.0 8.0 0.00 0.00 0.00 19 1010.9
20260503212249 94 83 3.0 13.0 0.00 0.00 0.00 18 1011.3
20260503211747 94 163 5.0 15.0 0.00 0.00 0.00 18 1011.4
20260503211243 94 220 3.0 9.0 0.00 0.00 0.00 19 1011.4
20260503210738 94 211 5.0 11.0 0.00 0.00 0.00 17 1011.4
20260503210236 94 178 3.0 13.0 0.00 0.00 0.00 18 1011.8
20260503205731 94 301 2.0 8.0 0.00 0.00 0.00 19 1011.7
20260503205227 93 158 1.0 10.0 0.00 0.00 0.00 20 1011.9
20260503204724 94 221 5.0 14.0 0.00 0.00 0.00 20 1012.0
20260503204222 93 176 2.0 8.0 0.00 0.00 0.00 20 1011.9
20260503203719 94 208 2.0 6.0 0.00 0.00 0.00 20 1011.9
20260503203216 93 178 5.0 9.0 0.00 0.00 0.00 19 1012.1
20260503202713 94 197 3.0 11.0 0.00 0.00 0.00 21 1012.0
20260503202211 93 249 4.0 6.0 0.00 0.00 0.00 19 1012.1
20260503201709 93 136 1.0 7.0 0.00 0.00 0.00 22 1012.2
20260503201206 93 74 3.0 7.0 0.00 0.00 0.00 21 1012.3
20260503200702 93 186 3.0 11.0 0.00 0.00 0.00 20 1012.3
20260503200159 93 180 2.0 8.0 0.00 0.00 0.00 19 1012.5
20260503195656 93 188 4.0 5.0 0.00 0.00 0.00 22 1012.7
20260503195153 93 206 5.0 10.0 0.00 0.00 0.00 20 1012.6
20260503194650 92 161 0.0 6.0 0.00 0.00 0.00 22 1012.7
20260503194145 93 153 7.0 10.0 0.00 0.00 0.00 19 1012.8
20260503193642 91 142 1.0 11.0 0.00 0.00 0.00 22 1012.8
20260503193137 92 167 6.0 7.0 0.00 0.00 0.00 20 1013.0
20260503192633 92 164 3.0 7.0 0.00 0.00 0.00 21 1013.0
20260503192129 92 203 5.0 8.0 0.00 0.00 0.00 21 1013.2
20260503191626 91 209 4.0 7.0 0.00 0.00 0.00 23 1013.4
20260503191123 91 162 5.0 11.0 0.00 0.00 0.00 20 1013.4
20260503190620 92 222 3.0 9.0 0.00 0.00 0.00 22 1013.4
20260503190117 91 227 5.0 12.0 0.00 0.00 0.00 24 1013.4
20260503185614 92 202 6.0 7.0 0.00 0.00 0.00 24 1013.2
20260503185109 91 228 3.0 5.0 0.00 0.00 0.00 26 1013.5
20260503184604 91 94 2.0 5.0 0.00 0.00 0.00 26 1013.4